FW8253 Weather Reports


time (UTC)temp
C
wind
direction
speed
KPH
gust
KPH
rain 1hr
cm
rain 24hr
cm
rain mn
cm
humidity
%
barometer
mb
20260905184533 38 240 0.0 0.0 0.00 0.00 0.00 49 1012.1
20260905184031 37 157 0.0 0.0 0.00 0.00 0.00 51 1012.2
20260905183526 38 21 0.0 0.0 0.00 0.00 0.00 50 1012.2
20260905183021 37 213 0.0 0.0 0.00 0.00 0.00 51 1012.2
20260905182520 38 235 0.0 0.0 0.00 0.00 0.00 49 1012.5
20260905182015 39 181 0.0 0.0 0.00 0.00 0.00 48 1012.4
20260905181510 38 125 0.0 0.0 0.00 0.00 0.00 49 1012.5
20260905181009 38 158 0.0 0.0 0.00 0.00 0.00 51 1012.6
20260905180504 37 214 0.0 0.0 0.00 0.00 0.00 52 1012.6
20260905175959 37 228 0.0 0.0 0.00 0.00 0.00 52 1012.7
20260905175458 37 230 0.0 0.0 0.00 0.00 0.00 55 1012.9
20260905174954 37 273 0.0 0.0 0.00 0.00 0.00 54 1012.9
20260905174449 36 236 0.0 0.0 0.00 0.00 0.00 54 1013.0
20260905173945 36 205 0.0 0.0 0.00 0.00 0.00 54 1013.0
20260905173441 37 173 0.0 0.0 0.00 0.00 0.00 53 1013.1
20260905172936 36 203 0.0 0.0 0.00 0.00 0.00 54 1013.1
20260905172434 36 309 0.0 0.0 0.00 0.00 0.00 55 1013.3
20260905171930 36 49 0.0 0.0 0.00 0.00 0.00 53 1013.3
20260905171427 36 210 0.0 0.0 0.00 0.00 0.00 56 1013.5
20260905170923 36 249 0.0 0.0 0.00 0.00 0.00 55 1013.3
20260905170419 36 234 0.0 0.0 0.00 0.00 0.00 55 1013.5
20260905165918 36 230 0.0 0.0 0.00 0.00 0.00 57 1013.3
20260905165413 35 253 0.0 0.0 0.00 0.00 0.00 57 1013.7
20260905164909 35 222 0.0 0.0 0.00 0.00 0.00 57 1013.8
20260905164403 36 238 0.0 0.0 0.00 0.00 0.00 56 1013.8
20260905163858 35 233 0.0 0.0 0.00 0.00 0.00 59 1014.1
20260905163355 36 303 0.0 0.0 0.00 0.00 0.00 59 1013.9
20260905162850 36 232 0.0 0.0 0.00 0.00 0.00 59 1014.1
20260905162350 35 164 0.0 0.0 0.00 0.00 0.00 58 1014.4
20260905161845 35 206 0.0 0.0 0.00 0.00 0.00 62 1014.4
20260905161344 35 216 0.0 0.0 0.00 0.00 0.00 61 1014.6
20260905160843 34 205 0.0 0.0 0.00 0.00 0.00 63 1014.7
20260905160337 34 134 0.0 0.0 0.00 0.00 0.00 64 1014.7
20260905155831 34 249 0.0 0.0 0.00 0.00 0.00 67 1014.8
20260905155330 33 181 0.0 0.0 0.00 0.00 0.00 65 1015.0
20260905154825 34 207 0.0 0.0 0.00 0.00 0.00 66 1014.8
20260905154320 34 211 0.0 0.0 0.00 0.00 0.00 66 1014.9
20260905153816 34 222 0.0 0.0 0.00 0.00 0.00 66 1014.8
20260905153312 33 207 0.0 0.0 0.00 0.00 0.00 66 1014.9
20260905152812 32 214 0.0 0.0 0.00 0.00 0.00 70 1015.2
20260905152311 32 219 0.0 0.0 0.00 0.00 0.00 71 1014.9
20260905151806 32 218 0.0 0.0 0.00 0.00 0.00 71 1014.9
20260905151302 32 236 0.0 0.0 0.00 0.00 0.00 72 1015.0
20260905150802 32 186 0.0 0.0 0.00 0.00 0.00 70 1015.2
20260905150301 32 121 0.0 0.0 0.00 0.00 0.00 73 1015.1
20260905145758 32 195 0.0 0.0 0.00 0.00 0.00 73 1015.5
20260905145253 31 139 0.0 0.0 0.00 0.00 0.00 75 1015.5
20260905144752 31 120 0.0 0.0 0.00 0.00 0.00 76 1015.6
20260905144248 30 230 0.0 0.0 0.00 0.00 0.00 79 1015.5
20260905143746 30 165 0.0 0.0 0.00 0.00 0.00 78 1015.4
20260905143241 31 197 0.0 0.0 0.00 0.00 0.00 77 1015.4
20260905142739 30 173 0.0 0.0 0.00 0.00 0.00 81 1015.5
20260905142234 28 203 0.0 0.0 0.00 0.00 0.00 83 1015.6
20260905141730 29 157 0.0 0.0 0.00 0.00 0.00 82 1015.6
20260905141226 28 183 0.0 0.0 0.00 0.00 0.00 84 1015.8
20260905140721 28 255 0.0 0.0 0.00 0.00 0.00 84 1015.7
20260905140215 28 192 0.0 0.0 0.00 0.00 0.00 87 1015.9
20260905135709 28 161 0.0 0.0 0.00 0.00 0.00 86 1015.8
20260905135205 27 348 0.0 0.0 0.00 0.00 0.00 90 1016.0
20260905134704 27 206 0.0 0.0 0.00 0.00 0.00 90 1015.9
20260905134204 27 189 0.0 0.0 0.00 0.00 0.00 92 1015.8
20260905133659 26 220 0.0 0.0 0.00 0.00 0.00 95 1015.8
20260905133154 26 220 0.0 0.0 0.00 0.00 0.00 95 1015.8
20260905132653 26 198 0.0 0.0 0.00 0.00 0.00 95 1015.8
20260905132148 25 227 0.0 0.0 0.00 0.00 0.00 98 1016.0
20260905131643 25 247 0.0 0.0 0.00 0.00 0.00 98 1016.0
20260905131138 25 225 0.0 0.0 0.00 0.00 0.00 99 1016.0
20260905130633 25 257 0.0 0.0 0.00 0.00 0.00 99 1016.1
20260905130133 25 228 0.0 0.0 0.00 0.00 0.00 99 1016.0
20260905125626 25 251 0.0 0.0 0.00 0.00 0.00 99 1016.2
20260905125123 25 209 0.0 0.0 0.00 0.00 0.00 99 1015.9
20260905124619 24 184 0.0 0.0 0.00 0.00 0.00 99 1016.2
20260905124115 24 202 0.0 0.0 0.00 0.00 0.00 99 1015.9
20260905123610 24 211 0.0 0.0 0.00 0.00 0.00 99 1015.8
20260905123107 24 194 0.0 0.0 0.00 0.00 0.00 99 1015.8
20260905122607 24 141 0.0 0.0 0.00 0.00 0.00 99 1015.8
20260905122107 24 205 0.0 0.0 0.00 0.00 0.00 99 1015.9
20260905121601 24 151 0.0 0.0 0.00 0.00 0.00 99 1015.7
20260905121057 23 190 0.0 0.0 0.00 0.00 0.00 99 1015.7
20260905120555 23 233 0.0 0.0 0.00 0.00 0.00 99 1015.7
20260905120051 23 208 0.0 0.0 0.00 0.00 0.00 99 1015.6
20260905115550 23 218 0.0 0.0 0.00 0.00 0.00 99 1015.6
20260905115045 23 218 0.0 0.0 0.00 0.00 0.00 99 1015.4
20260905114544 23 218 0.0 0.0 0.00 0.00 0.00 99 1015.4
20260905114043 23 218 0.0 0.0 0.00 0.00 0.00 99 1015.6
20260905113538 23 218 0.0 0.0 0.00 0.00 0.00 99 1015.5
20260905113034 23 218 0.0 0.0 0.00 0.00 0.00 99 1015.6
20260905112529 23 218 0.0 0.0 0.00 0.00 0.00 99 1015.4
20260905112024 23 218 0.0 0.0 0.00 0.00 0.00 99 1015.5
20260905111519 23 218 0.0 0.0 0.00 0.00 0.00 99 1015.1
20260905111018 23 218 0.0 0.0 0.00 0.00 0.00 99 1015.6
20260905110517 23 218 0.0 0.0 0.00 0.00 0.00 99 1015.2
20260905110013 23 218 0.0 0.0 0.00 0.00 0.00 99 1015.2
20260905105507 23 219 0.0 0.0 0.00 0.00 0.00 99 1015.1
20260905105001 23 218 0.0 0.0 0.00 0.00 0.00 99 1015.1
20260905104457 23 218 0.0 0.0 0.00 0.00 0.00 99 1015.1
20260905103957 23 218 0.0 0.0 0.00 0.00 0.00 99 1015.0
20260905103452 23 219 0.0 0.0 0.00 0.00 0.00 99 1015.2
20260905102948 23 218 0.0 0.0 0.00 0.00 0.00 99 1014.9
20260905102444 23 218 0.0 0.0 0.00 0.00 0.00 99 1015.1
20260905101939 23 218 0.0 0.0 0.00 0.00 0.00 99 1015.0
20260905101437 23 218 0.0 0.0 0.00 0.00 0.00 99 1015.0
20260905100932 23 218 0.0 0.0 0.00 0.00 0.00 99 1014.9
20260905100428 22 218 0.0 0.0 0.00 0.00 0.00 99 1014.9
20260905095927 23 219 0.0 0.0 0.00 0.00 0.00 99 1014.8
20260905095422 23 219 0.0 0.0 0.00 0.00 0.00 99 1014.9
20260905094921 23 218 0.0 0.0 0.00 0.00 0.00 99 1014.9
20260905094418 23 218 0.0 0.0 0.00 0.00 0.00 99 1014.9
20260905093916 23 218 0.0 0.0 0.00 0.00 0.00 99 1014.6
20260905093412 23 218 0.0 0.0 0.00 0.00 0.00 99 1014.9
20260905092907 23 218 0.0 0.0 0.00 0.00 0.00 99 1014.8
20260905092402 23 219 0.0 0.0 0.00 0.00 0.00 99 1014.6
20260905091857 23 227 0.0 0.0 0.00 0.00 0.00 99 1014.6
20260905091357 23 227 0.0 0.0 0.00 0.00 0.00 99 1014.7
20260905090855 23 227 0.0 0.0 0.00 0.00 0.00 99 1014.6
20260905090352 23 227 0.0 0.0 0.00 0.00 0.00 99 1014.7
20260905085850 23 227 0.0 0.0 0.00 0.00 0.00 99 1014.7
20260905085345 23 227 0.0 0.0 0.00 0.00 0.00 99 1014.7
20260905084842 23 227 0.0 0.0 0.00 0.00 0.00 99 1014.6
20260905084340 23 226 0.0 0.0 0.00 0.00 0.00 99 1014.9
20260905083835 23 227 0.0 0.0 0.00 0.00 0.00 99 1014.6
20260905083331 23 226 0.0 0.0 0.00 0.00 0.00 99 1014.6
20260905082826 23 226 0.0 0.0 0.00 0.00 0.00 99 1014.6
20260905082322 23 226 0.0 0.0 0.00 0.00 0.00 99 1014.8
20260905081817 23 227 0.0 0.0 0.00 0.00 0.00 99 1014.8
20260905081312 23 227 0.0 0.0 0.00 0.00 0.00 99 1015.0
20260905080811 23 227 0.0 0.0 0.00 0.00 0.00 99 1014.6
20260905080306 23 227 0.0 0.0 0.00 0.00 0.00 99 1014.7
20260905075805 23 227 0.0 0.0 0.00 0.00 0.00 99 1014.8
20260905075306 23 227 0.0 0.0 0.00 0.00 0.00 99 1014.8
20260905074803 23 175 0.0 0.0 0.00 0.00 0.00 99 1015.0
20260905074300 23 175 0.0 0.0 0.00 0.00 0.00 99 1014.9
20260905073755 23 175 0.0 0.0 0.00 0.00 0.00 99 1014.9
20260905073250 23 175 0.0 0.0 0.00 0.00 0.00 99 1014.7
20260905072750 23 175 0.0 0.0 0.00 0.00 0.00 99 1014.7
20260905072245 23 175 0.0 0.0 0.00 0.00 0.00 99 1014.8
20260905071742 23 175 0.0 0.0 0.00 0.00 0.00 99 1014.6
20260905071237 23 175 0.0 0.0 0.00 0.00 0.00 99 1014.7
20260905070732 23 174 0.0 0.0 0.00 0.00 0.00 99 1014.9
20260905070229 23 174 0.0 0.0 0.00 0.00 0.00 99 1014.9
20260905065727 23 174 0.0 0.0 0.00 0.00 0.00 99 1014.9
20260905065221 23 175 0.0 0.0 0.00 0.00 0.00 99 1014.9
20260905064716 23 175 0.0 0.0 0.00 0.00 0.00 99 1014.9
20260905064212 23 175 0.0 0.0 0.00 0.00 0.00 99 1014.8
20260905063710 23 175 0.0 0.0 0.00 0.00 0.00 99 1014.9
20260905063207 23 175 0.0 0.0 0.00 0.00 0.00 99 1014.9
20260905062702 23 175 0.0 0.0 0.00 0.00 0.00 99 1015.0
20260905062202 23 175 0.0 0.0 0.00 0.00 0.00 99 1015.0
20260905061701 23 175 0.0 0.0 0.00 0.00 0.00 99 1015.1
20260905061156 23 175 0.0 0.0 0.00 0.00 0.00 99 1015.2
20260905060651 23 175 0.0 0.0 0.00 0.00 0.00 99 1015.0
20260905060148 23 176 0.0 0.0 0.00 0.00 0.00 99 1015.2
20260905055646 23 176 0.0 0.0 0.00 0.00 0.00 99 1015.1
20260905055142 23 176 0.0 0.0 0.00 0.00 0.00 99 1015.6
20260905054637 23 176 0.0 0.0 0.00 0.00 0.00 99 1015.7
20260905054133 23 176 0.0 0.0 0.00 0.00 0.00 99 1015.7
20260905053632 24 176 0.0 0.0 0.00 0.00 0.00 99 1015.8
20260905053128 24 176 0.0 0.0 0.00 0.00 0.00 99 1015.7
20260905052627 24 176 0.0 0.0 0.00 0.00 0.00 99 1015.7
20260905052122 24 178 0.0 0.0 0.00 0.00 0.00 99 1015.9
20260905051617 24 176 0.0 0.0 0.00 0.00 0.00 99 1016.0
20260905051114 24 176 0.0 0.0 0.00 0.00 0.00 99 1015.8
20260905050610 24 176 0.0 0.0 0.00 0.00 0.00 99 1015.8
20260905050107 24 177 0.0 0.0 0.00 0.00 0.00 99 1015.9
20260905045606 25 177 0.0 0.0 0.00 0.00 0.00 99 1015.9
20260905045102 25 177 0.0 0.0 0.00 0.00 0.00 99 1016.0
20260905044601 25 176 0.0 0.0 0.00 0.00 0.00 99 1015.9
20260905044056 25 173 0.0 0.0 0.00 0.00 0.00 99 1016.2
20260905043555 25 178 0.0 0.0 0.00 0.00 0.00 98 1016.0
20260905043051 25 178 0.0 0.0 0.00 0.00 0.00 98 1016.1
20260905042549 25 178 0.0 0.0 0.00 0.00 0.00 98 1016.1
20260905042045 25 178 0.0 0.0 0.00 0.00 0.00 98 1016.2
20260905041540 25 178 0.0 0.0 0.00 0.00 0.00 97 1016.2
20260905041036 25 178 0.0 0.0 0.00 0.00 0.00 97 1016.2
20260905040535 25 179 0.0 0.0 0.00 0.00 0.00 97 1016.1
20260905040034 25 179 0.0 0.0 0.00 0.00 0.00 96 1016.2
20260905035529 25 179 0.0 0.0 0.00 0.00 0.00 96 1016.0
20260905035026 25 179 0.0 0.0 0.00 0.00 0.00 96 1016.3
20260905034521 25 179 0.0 0.0 0.00 0.00 0.00 96 1016.3
20260905034021 26 179 0.0 0.0 0.00 0.00 0.00 95 1016.2
20260905033515 26 175 0.0 0.0 0.00 0.00 0.00 95 1016.3
20260905033011 26 174 0.0 0.0 0.00 0.00 0.00 95 1016.4
20260905032506 26 176 0.0 0.0 0.00 0.00 0.00 95 1016.2
20260905032001 26 181 0.0 0.0 0.00 0.00 0.00 94 1016.2
20260905031456 26 188 0.0 0.0 0.00 0.00 0.00 94 1016.1
20260905030951 26 186 0.0 0.0 0.00 0.00 0.00 94 1016.3
20260905030447 26 195 0.0 0.0 0.00 0.00 0.00 94 1016.3
20260905025945 26 209 0.0 0.0 0.00 0.00 0.00 93 1016.1
20260905025441 26 186 0.0 0.0 0.00 0.00 0.00 93 1016.2
20260905024937 26 186 0.0 0.0 0.00 0.00 0.00 93 1016.3
20260905024438 26 186 0.0 0.0 0.00 0.00 0.00 93 1016.3
20260905023933 26 186 0.0 0.0 0.00 0.00 0.00 92 1016.4
20260905023428 26 186 0.0 0.0 0.00 0.00 0.00 91 1016.4
20260905022927 26 186 0.0 0.0 0.00 0.00 0.00 91 1016.2
20260905022423 26 184 0.0 0.0 0.00 0.00 0.00 91 1016.4
20260905021918 26 235 0.0 0.0 0.00 0.00 0.00 91 1016.5
20260905021418 27 234 0.0 0.0 0.00 0.00 0.00 90 1016.5
20260905020913 27 212 0.0 0.0 0.00 0.00 0.00 90 1016.3
20260905020413 27 211 0.0 0.0 0.00 0.00 0.00 89 1016.3
20260905015912 27 168 0.0 0.0 0.00 0.00 0.00 89 1016.3
20260905015410 27 169 0.0 0.0 0.00 0.00 0.00 88 1016.4
20260905014910 27 180 0.0 0.0 0.00 0.00 0.00 87 1016.5
20260905014406 27 174 0.0 0.0 0.00 0.00 0.00 88 1016.5
20260905013901 27 175 0.0 0.0 0.00 0.00 0.00 87 1016.6
20260905013357 27 175 0.0 0.0 0.00 0.00 0.00 86 1016.5
20260905012852 28 175 0.0 0.0 0.00 0.00 0.00 86 1016.5
20260905012347 28 175 0.0 0.0 0.00 0.00 0.00 86 1016.5
20260905011844 28 175 0.0 0.0 0.00 0.00 0.00 85 1016.3
20260905011339 28 175 0.0 0.0 0.00 0.00 0.00 84 1016.2
20260905010835 28 168 0.0 0.0 0.00 0.00 0.00 84 1016.0
20260905010330 28 168 0.0 0.0 0.00 0.00 0.00 83 1016.1
20260905005826 28 185 0.0 0.0 0.00 0.00 0.00 83 1015.9
20260905005321 28 183 0.0 0.0 0.00 0.00 0.00 82 1015.8
20260905004816 29 175 0.0 0.0 0.00 0.00 0.00 82 1015.8
20260905004311 29 186 0.0 0.0 0.00 0.00 0.00 81 1015.8
20260905003806 29 194 0.0 0.0 0.00 0.00 0.00 81 1015.5
20260905003302 29 204 0.0 0.0 0.00 0.00 0.00 81 1015.7
20260905002757 30 190 0.0 0.0 0.00 0.00 0.00 81 1015.6
20260905002257 30 226 0.0 0.0 0.00 0.00 0.00 80 1015.7
20260905001752 30 208 0.0 0.0 0.00 0.00 0.00 80 1015.7
20260905001252 30 205 0.0 0.0 0.00 0.00 0.00 80 1015.2
20260905000747 30 230 0.0 0.0 0.00 0.00 0.00 80 1015.3
20260905000243 30 224 0.0 0.0 0.00 0.00 0.00 79 1015.0
20260904235738 30 216 0.0 0.0 0.00 0.00 0.00 79 1015.0
20260904235232 30 224 0.0 0.0 0.00 0.00 0.00 78 1015.2
20260904234726 31 210 0.0 0.0 0.00 0.00 0.00 77 1015.0
20260904234222 31 194 0.0 0.0 0.00 0.00 0.00 76 1014.9
20260904233718 31 213 0.0 0.0 0.00 0.00 0.00 76 1014.8
20260904233214 31 230 0.0 0.0 0.00 0.00 0.00 75 1014.7
20260904232710 31 213 0.0 0.0 0.00 0.00 0.00 74 1014.9
20260904232207 31 228 0.0 0.0 0.00 0.00 0.00 74 1014.7
20260904231701 32 206 0.0 0.0 0.00 0.00 0.00 73 1014.6
20260904231157 32 208 0.0 0.0 0.00 0.00 0.00 73 1014.4
20260904230656 32 215 0.0 0.0 0.00 0.00 0.00 72 1014.5
20260904230151 32 204 0.0 0.0 0.00 0.00 0.00 72 1014.5
20260904225649 32 234 0.0 0.0 0.00 0.00 0.00 72 1014.3
20260904225145 32 221 0.0 0.0 0.00 0.00 0.00 71 1014.4
20260904224639 32 228 0.0 0.0 0.00 0.00 0.00 71 1014.5
20260904224133 32 208 0.0 0.0 0.00 0.00 0.00 70 1014.4
20260904223633 33 230 0.0 0.0 0.00 0.00 0.00 68 1014.4
20260904223128 33 212 0.0 0.0 0.00 0.00 0.00 67 1014.6
20260904222625 34 200 0.0 0.0 0.00 0.00 0.00 63 1014.4
20260904222120 34 172 0.0 0.0 0.00 0.00 0.00 59 1014.1
20260904221619 35 246 0.0 0.0 0.00 0.00 0.00 57 1014.3
20260904221119 35 180 0.0 0.0 0.00 0.00 0.00 55 1014.2
20260904220614 35 222 0.0 0.0 0.00 0.00 0.00 54 1014.2
20260904220110 35 223 0.0 0.0 0.00 0.00 0.00 53 1014.2
20260904215609 35 261 0.0 0.0 0.00 0.00 0.00 53 1014.0
20260904215106 35 270 0.0 0.0 0.00 0.00 0.00 53 1014.2
20260904214601 35 234 0.0 0.0 0.00 0.00 0.00 53 1014.1
20260904214056 35 238 0.0 0.0 0.00 0.00 0.00 54 1013.9
20260904213554 36 189 0.0 0.0 0.00 0.00 0.00 56 1014.2
20260904213051 36 245 0.0 0.0 0.00 0.00 0.00 53 1014.0
20260904212550 37 236 0.0 0.0 0.00 0.00 0.00 50 1014.0
20260904212046 36 59 0.0 0.0 0.00 0.00 0.00 51 1014.1
20260904211545 36 176 0.0 0.0 0.00 0.00 0.00 52 1014.0
20260904211041 36 105 0.0 0.0 0.00 0.00 0.00 52 1014.3
20260904210540 37 120 0.0 0.0 0.00 0.00 0.00 50 1014.2
20260904210036 37 228 0.0 0.0 0.00 0.00 0.00 51 1014.2
20260904205531 36 201 0.0 0.0 0.00 0.00 0.00 51 1014.4
20260904205028 36 238 0.0 0.0 0.00 0.00 0.00 51 1014.3
20260904204523 36 241 0.0 0.0 0.00 0.00 0.00 51 1014.3
20260904204019 36 207 0.0 0.0 0.00 0.00 0.00 52 1014.6
20260904203515 35 241 0.0 0.0 0.00 0.00 0.00 57 1014.8
20260904203011 35 205 0.0 0.0 0.00 0.00 0.00 55 1014.8
20260904202507 35 268 0.0 0.0 0.00 0.00 0.00 56 1014.8
20260904202003 36 154 0.0 0.0 0.00 0.00 0.00 54 1014.9
20260904201457 36 215 0.0 0.0 0.00 0.00 0.00 54 1015.0
20260904200953 36 174 0.0 0.0 0.00 0.00 0.00 53 1015.1
20260904200451 36 234 0.0 0.0 0.00 0.00 0.00 56 1015.2
20260904195947 35 257 0.0 0.0 0.00 0.00 0.00 54 1015.3
20260904195445 36 331 0.0 0.0 0.00 0.00 0.00 52 1015.3
20260904194944 36 201 0.0 0.0 0.00 0.00 0.00 54 1015.5
20260904194439 35 220 0.0 0.0 0.00 0.00 0.00 55 1015.5
20260904193934 35 199 0.0 0.0 0.00 0.00 0.00 57 1015.5
20260904193430 35 159 0.0 0.0 0.00 0.00 0.00 56 1015.7
20260904192925 36 141 0.0 0.0 0.00 0.00 0.00 54 1015.5
20260904192420 37 113 0.0 0.0 0.00 0.00 0.00 51 1015.6
20260904191916 37 250 0.0 0.0 0.00 0.00 0.00 53 1015.6
20260904191412 36 259 0.0 0.0 0.00 0.00 0.00 55 1015.8
20260904190909 35 200 0.0 0.0 0.00 0.00 0.00 58 1015.9
20260904190404 35 211 0.0 0.0 0.00 0.00 0.00 59 1015.9
20260904185900 34 203 0.0 0.0 0.00 0.00 0.00 58 1016.1
20260904185355 35 199 0.0 0.0 0.00 0.00 0.00 60 1015.9
20260904184849 34 232 0.0 0.0 0.00 0.00 0.00 65 1016.2